Location: Pilipovskiye Korichintsy
(49.1833°N, 27.4667°E)
Time: 23:37:55
(UTC+00:00)

Lacrosse 5 - Pass Details

Date: 04 November 2020
Orbit: 714 x 725 km, 57.0° (Epoch: 30 November)

Event Time Altitude Azimuth Distance (km) Brightness Sun altitude
Rises 16:22:16 0° 303° (WNW) 3,121 6.0 -16.4°
Reaches altitude 10° 16:24:40 10° 306° (NW) 2,199 5.1 -16.8°
Maximum altitude 16:29:44 73° 32° (NNE) 749 1.8 -17.6°
Enters shadow 16:32:08 31° 110° (ESE) 1,238 2.6 -18.0°
